| time (UTC) | temp F | wind direction | speed MPH | gust MPH | rain 1hr in | rain 24hr in | rain mn in | humidity % | barometer mb |
| 20260504184533 | 75 | 308 | 2.0 | 8.0 | 0.00 | 0.00 | 0.00 | 41 | 1015.2 |
| 20260504183012 | 73 | 321 | 0.0 | 3.0 | 0.00 | 0.00 | 0.00 | 43 | 1015.3 |
| 20260504181523 | 73 | 260 | 2.0 | 4.0 | 0.00 | 0.00 | 0.00 | 42 | 1015.6 |
| 20260504180025 | 72 | 284 | 1.0 | 5.0 | 0.00 | 0.00 | 0.00 | 41 | 1015.6 |
| 20260504174524 | 72 | 352 | 1.0 | 7.0 | 0.00 | 0.00 | 0.00 | 41 | 1015.8 |
| 20260504173023 | 71 | 176 | 1.0 | 2.0 | 0.00 | 0.00 | 0.00 | 41 | 1015.8 |
| 20260504171523 | 70 | 215 | 3.0 | 7.0 | 0.00 | 0.00 | 0.00 | 43 | 1015.9 |
| 20260504081515 | 39 | 158 | 0.0 | 2.0 | 0.00 | 0.00 | 0.00 | 85 | 1017.8 |
| 20260504044522 | 44 | 97 | 0.0 | 2.0 | 0.00 | 0.00 | 0.00 | 77 | 1017.8 |
| 20260504043020 | 44 | 63 | 0.0 | 2.0 | 0.00 | 0.00 | 0.00 | 75 | 1017.7 |
| 20260504041531 | 44 | 130 | 0.0 | 2.0 | 0.00 | 0.00 | 0.00 | 75 | 1017.6 |
| 20260504040024 | 45 | 135 | 0.0 | 2.0 | 0.00 | 0.00 | 0.00 | 74 | 1017.8 |
| 20260504034523 | 45 | 120 | 0.0 | 2.0 | 0.00 | 0.00 | 0.00 | 74 | 1017.5 |
| 20260504033024 | 45 | 91 | 0.0 | 2.0 | 0.00 | 0.00 | 0.00 | 73 | 1017.5 |
| 20260504031525 | 45 | 131 | 0.0 | 2.0 | 0.00 | 0.00 | 0.00 | 73 | 1017.5 |
| 20260504030022 | 46 | 131 | 0.0 | 0.0 | 0.00 | 0.00 | 0.00 | 70 | 1017.4 |
| 20260504024526 | 47 | 131 | 0.0 | 2.0 | 0.00 | 0.00 | 0.00 | 68 | 1017.4 |
| 20260504023026 | 47 | 117 | 1.0 | 2.0 | 0.00 | 0.00 | 0.00 | 67 | 1017.4 |
| 20260504021526 | 48 | 146 | 0.0 | 0.0 | 0.00 | 0.00 | 0.00 | 65 | 1017.3 |
| 20260504020024 | 49 | 179 | 0.0 | 2.0 | 0.00 | 0.00 | 0.00 | 62 | 1017.4 |
| 20260504014528 | 49 | 203 | 0.0 | 0.0 | 0.00 | 0.00 | 0.00 | 59 | 1017.4 |
| 20260504013025 | 50 | 203 | 0.0 | 2.0 | 0.00 | 0.00 | 0.00 | 57 | 1017.1 |
| 20260504011526 | 51 | 201 | 0.0 | 1.0 | 0.00 | 0.00 | 0.00 | 55 | 1016.9 |
| 20260504010026 | 53 | 201 | 0.0 | 2.0 | 0.00 | 0.00 | 0.00 | 52 | 1016.8 |
| 20260504004529 | 54 | 201 | 0.0 | 0.0 | 0.00 | 0.00 | 0.00 | 49 | 1016.4 |
| 20260504003029 | 56 | 201 | 0.0 | 2.0 | 0.00 | 0.00 | 0.00 | 47 | 1016.2 |
| 20260504001531 | 57 | 215 | 0.0 | 2.0 | 0.00 | 0.00 | 0.00 | 44 | 1016.2 |
| 20260504000006 | 59 | 229 | 0.0 | 2.0 | 0.00 | 0.00 | 0.00 | 40 | 1016.1 |
| 20260503234503 | 60 | 243 | 0.0 | 4.0 | 0.00 | 0.00 | 0.00 | 37 | 1016.2 |
| 20260503233011 | 62 | 289 | 1.0 | 5.0 | 0.00 | 0.00 | 0.00 | 34 | 1016.2 |
| 20260503231520 | 63 | 229 | 1.0 | 5.0 | 0.00 | 0.00 | 0.00 | 34 | 1016.1 |
| 20260503230014 | 63 | 1 | 2.0 | 8.0 | 0.00 | 0.00 | 0.00 | 32 | 1016.2 |
| 20260503224513 | 64 | 340 | 1.0 | 4.0 | 0.00 | 0.00 | 0.00 | 31 | 1016.4 |
| 20260503223010 | 65 | 258 | 2.0 | 6.0 | 0.00 | 0.00 | 0.00 | 30 | 1016.6 |
| 20260503221508 | 65 | 91 | 2.0 | 8.0 | 0.00 | 0.00 | 0.00 | 30 | 1016.6 |
| 20260503220004 | 66 | 155 | 1.0 | 5.0 | 0.00 | 0.00 | 0.00 | 30 | 1016.7 |
| 20260503214522 | 65 | 330 | 2.0 | 5.0 | 0.00 | 0.00 | 0.00 | 32 | 1016.8 |
| 20260503213023 | 65 | 228 | 2.0 | 4.0 | 0.00 | 0.00 | 0.00 | 30 | 1017.0 |
| 20260503211516 | 64 | 295 | 2.0 | 6.0 | 0.00 | 0.00 | 0.00 | 32 | 1017.0 |
| 20260503210014 | 64 | 274 | 1.0 | 7.0 | 0.00 | 0.00 | 0.00 | 30 | 1017.1 |
| 20260503204512 | 65 | 315 | 2.0 | 5.0 | 0.00 | 0.00 | 0.00 | 31 | 1017.4 |
| 20260503203011 | 65 | 239 | 3.0 | 6.0 | 0.00 | 0.00 | 0.00 | 31 | 1017.5 |
| 20260503201508 | 64 | 61 | 1.0 | 5.0 | 0.00 | 0.00 | 0.00 | 33 | 1017.8 |
| 20260503200024 | 64 | 182 | 2.0 | 6.0 | 0.00 | 0.00 | 0.00 | 30 | 1018.0 |
| 20260503194522 | 64 | 278 | 3.0 | 6.0 | 0.00 | 0.00 | 0.00 | 30 | 1018.4 |
| 20260503193018 | 63 | 343 | 1.0 | 8.0 | 0.00 | 0.00 | 0.00 | 32 | 1018.5 |
| 20260503191514 | 62 | 290 | 1.0 | 5.0 | 0.00 | 0.00 | 0.00 | 32 | 1018.6 |
| 20260503190017 | 62 | 296 | 2.0 | 6.0 | 0.00 | 0.00 | 0.00 | 33 | 1018.9 |